Date String (YYYY-MM-DD hh:mm:ss) UTC,Instrument flags,absolute air pressure of the measurement (hPa),sample flow rate (lpm),inlet stack bypass flow (lpm),air temperature of the measurement (°C),ambient temperature measured by the external sensor (°C),aerosol sample conditioner tube jacket temperature (°C),OPC LED temperature (°C),internal box temperature (°C),relative humidity of the measurement (%),span deviation,mass concentration of particles derived from Lorenz-Mie calculation of OPC scattering (μg/m³),mass concentration of particles derived from Lorenz-Mie calculation of OPC scattering (μg/m³),mass concentration of particles derived from Lorenz-Mie calculation of OPC scattering (μg/m³)
DateTimeUTC,F1_M11,P_M11,Q1_M11,Q2_M11,T1_M11,T2_M11,T3_M11,T4_M11,T5_M11,U1_M11,ZSPAN_M11,X0_M11,X2_M11,X1_M11
2024-06-08 19:00:00,SystemResetWarning,0828.0,5.00,000.00,029.5,029.1,000.0,037.5,031.3,028.2,0000.0,0014.20,0004.88,0003.63
2024-06-08 19:01:00,SystemResetWarning,0828.1,5.00,000.00,029.5,029.0,000.0,037.6,031.3,028.4,0000.0,0014.23,0004.87,0003.61
2024-06-08 19:02:00,SystemResetWarning,0828.0,4.98,000.00,029.3,027.2,000.0,037.7,030.4,028.6,0000.0,0014.72,0004.84,0003.59
2024-06-08 19:03:00,SystemResetWarning,0827.8,5.01,000.00,028.9,025.8,000.0,037.7,029.7,028.9,0000.0,0015.07,0004.77,0003.59
2024-06-08 19:04:00,SystemResetWarning,0827.8,5.00,000.00,028.8,026.0,000.0,037.6,029.7,028.7,0000.0,0014.75,0004.72,0003.58
2024-06-08 19:05:00,SystemResetWarning,0827.8,4.99,000.00,028.7,026.5,000.0,037.5,030.0,028.7,0000.0,0015.38,0004.74,0003.60
2024-06-08 19:06:00,SystemResetWarning,0827.9,5.00,000.00,028.8,027.0,000.0,037.4,030.2,028.8,0000.0,0015.59,0004.69,0003.62
2024-06-08 19:07:00,SystemResetWarning,0827.8,5.00,000.00,028.8,027.4,000.0,037.4,030.4,028.5,0000.0,0015.95,0004.74,0003.64
2024-06-08 19:08:00,SystemResetWarning,0827.9,5.01,000.00,028.9,027.7,000.0,037.3,030.6,028.3,0000.0,0014.85,0004.76,0003.65
2024-06-08 19:09:00,SystemResetWarning,0827.9,5.01,000.00,029.0,028.1,000.0,037.3,030.8,028.6,0000.0,0015.81,0004.71,0003.64
2024-06-08 19:10:00,SystemResetWarning,0827.8,5.00,000.00,029.1,028.3,000.0,037.3,030.9,028.7,0000.0,0016.52,0004.71,0003.63
2024-06-08 19:11:00,SystemResetWarning,0827.8,5.00,000.00,029.2,028.6,000.0,037.4,031.0,029.1,0000.0,0016.17,0004.76,0003.65
2024-06-08 19:12:00,SystemResetWarning,0828.0,4.99,000.00,029.3,028.8,000.0,037.4,031.1,028.1,0000.0,0016.55,0004.81,0003.66
2024-06-08 19:13:00,SystemResetWarning,0827.8,4.99,000.00,029.4,028.9,000.0,037.4,031.2,028.4,0000.0,0016.62,0004.85,0003.68
2024-06-08 19:14:00,SystemResetWarning,0827.8,5.00,000.00,029.4,029.1,000.0,037.5,031.3,028.5,0000.0,0017.83,0004.90,0003.68
2024-06-08 19:15:00,SystemResetWarning,0827.8,5.00,000.00,029.4,027.8,000.0,037.6,030.6,028.1,0000.0,0017.69,0004.94,0003.68
2024-06-08 19:16:00,SystemResetWarning,0827.8,5.00,000.00,029.0,025.9,000.0,037.6,029.7,028.5,0000.0,0016.97,0004.95,0003.68
2024-06-08 19:17:00,SystemResetWarning,0827.8,5.02,000.00,028.7,025.7,000.0,037.6,029.5,029.0,0000.0,0017.12,0004.96,0003.67
2024-06-08 19:18:00,SystemResetWarning,0827.8,4.99,000.00,028.6,026.2,000.0,037.4,029.8,029.1,0000.0,0018.03,0004.90,0003.67
2024-06-08 19:19:00,SystemResetWarning,0827.8,5.00,000.00,028.7,026.7,000.0,037.3,030.0,028.9,0000.0,0018.83,0004.90,0003.68
2024-06-08 19:20:00,SystemResetWarning,0827.8,5.00,000.00,028.7,027.1,000.0,037.3,030.3,028.8,0000.0,0018.30,0004.94,0003.70
2024-06-08 19:21:00,SystemResetWarning,0827.8,5.00,000.00,028.8,027.5,000.0,037.2,030.5,029.3,0000.0,0017.74,0004.98,0003.72
2024-06-08 19:22:00,SystemResetWarning,0827.7,4.99,000.00,028.9,027.8,000.0,037.2,030.6,029.4,0000.0,0017.55,0004.96,0003.72
2024-06-08 19:23:00,SystemResetWarning,0827.7,5.00,000.00,029.0,028.1,000.0,037.3,030.8,029.4,0000.0,0017.20,0004.91,0003.73
2024-06-08 19:24:00,SystemResetWarning,0827.7,5.00,000.00,029.1,028.4,000.0,037.3,030.9,028.7,0000.0,0016.98,0004.87,0003.72
2024-06-08 19:25:00,SystemResetWarning,0827.7,5.00,000.00,029.1,028.6,000.0,037.3,031.0,028.4,0000.0,0016.23,0004.83,0003.73
2024-06-08 19:26:00,SystemResetWarning,0827.7,5.00,000.00,029.2,028.8,000.0,037.3,031.1,028.1,0000.0,0016.39,0004.81,0003.73
2024-06-08 19:27:00,SystemResetWarning,0827.7,5.00,000.00,029.3,028.9,000.0,037.4,031.2,028.5,0000.0,0016.59,0004.79,0003.73
2024-06-08 19:28:00,SystemResetWarning,0827.7,5.00,000.00,029.4,029.1,000.0,037.4,031.3,029.0,0000.0,0017.53,0004.78,0003.72
2024-06-08 19:29:00,SystemResetWarning,0827.7,4.99,000.00,029.5,028.6,000.0,037.5,031.1,028.5,0000.0,0017.32,0004.84,0003.72
2024-06-08 19:30:00,SystemResetWarning,0827.6,5.00,000.00,029.1,026.4,000.0,037.5,030.0,028.3,0000.0,0017.19,0004.86,0003.71
2024-06-08 19:31:00,SystemResetWarning,0827.7,5.01,000.00,028.8,025.6,000.0,037.6,029.6,028.9,0000.0,0017.29,0004.81,0003.70
2024-06-08 19:32:00,SystemResetWarning,0827.7,5.00,000.00,028.7,026.0,000.0,037.5,029.7,028.8,0000.0,0017.08,0004.77,0003.70
2024-06-08 19:33:00,SystemResetWarning,0827.7,5.00,000.00,028.7,026.5,000.0,037.4,030.0,028.8,0000.0,0016.85,0004.75,0003.71
2024-06-08 19:34:00,SystemResetWarning,0827.7,5.00,000.00,028.7,027.0,000.0,037.3,030.2,028.7,0000.0,0017.27,0004.75,0003.72
2024-06-08 19:35:00,SystemResetWarning,0827.8,4.99,000.00,028.8,027.4,000.0,037.3,030.4,028.5,0000.0,0017.35,0004.77,0003.74
2024-06-08 19:36:00,SystemResetWarning,0827.8,5.00,000.00,028.9,027.8,000.0,037.2,030.6,028.7,0000.0,0017.06,0004.80,0003.74
2024-06-08 19:37:00,SystemResetWarning,0827.7,5.00,000.00,029.0,028.1,000.0,037.2,030.8,028.6,0000.0,0017.30,0004.82,0003.75
2024-06-08 19:38:00,SystemResetWarning,0827.8,5.01,000.00,029.0,028.3,000.0,037.2,030.9,028.6,0000.0,0016.85,0004.82,0003.76
2024-06-08 19:39:00,SystemResetWarning,0827.8,5.00,000.00,029.1,028.6,000.0,037.3,031.0,028.0,0000.0,0016.72,0004.86,0003.77
2024-06-08 19:40:00,SystemResetWarning,0827.8,4.99,000.00,029.2,028.8,000.0,037.3,031.1,028.1,0000.0,0015.94,0004.83,0003.78
2024-06-08 19:41:00,SystemResetWarning,0827.7,4.99,000.00,029.3,028.9,000.0,037.3,031.2,028.3,0000.0,0015.95,0004.80,0003.79
2024-06-08 19:42:00,SystemResetWarning,0827.8,5.00,000.00,029.4,029.1,000.0,037.4,031.3,027.7,0000.0,0015.66,0004.85,0003.81
2024-06-08 19:43:00,SystemResetWarning,0827.8,4.99,000.00,029.4,028.3,000.0,037.5,030.8,027.6,0000.0,0016.01,0004.91,0003.82
2024-06-08 19:44:00,SystemResetWarning,0827.7,5.00,000.00,029.0,026.2,000.0,037.5,029.8,028.5,0000.0,0016.26,0004.94,0003.82
2024-06-08 19:45:00,SystemResetWarning,0827.7,5.02,000.00,028.7,025.6,000.0,037.5,029.5,028.8,0000.0,0016.36,0004.96,0003.84
2024-06-08 19:46:00,SystemResetWarning,0827.8,5.01,000.00,028.6,026.1,000.0,037.4,029.7,029.0,0000.0,0016.92,0004.94,0003.84
2024-06-08 19:47:00,SystemResetWarning,0827.8,4.99,000.00,028.6,026.5,000.0,037.3,030.0,029.5,0000.0,0017.33,0004.94,0003.86
2024-06-08 19:48:00,SystemResetWarning,0827.8,5.00,000.00,028.7,027.0,000.0,037.3,030.2,029.2,0000.0,0016.19,0004.92,0003.87
2024-06-08 19:49:00,SystemResetWarning,0827.9,5.01,000.00,028.8,027.4,000.0,037.2,030.4,028.7,0000.0,0017.04,0004.95,0003.87
2024-06-08 19:50:00,SystemResetWarning,0827.8,5.00,000.00,028.8,027.8,000.0,037.2,030.6,028.6,0000.0,0017.24,0004.96,0003.88
2024-06-08 19:51:00,SystemResetWarning,0827.9,5.00,000.00,028.9,028.1,000.0,037.2,030.7,028.7,0000.0,0017.00,0005.00,0003.91
2024-06-08 19:52:00,SystemResetWarning,0828.0,4.99,000.00,029.0,028.3,000.0,037.2,030.8,028.6,0000.0,0015.74,0005.02,0003.92
2024-06-08 19:53:00,SystemResetWarning,0828.1,5.00,000.00,029.1,028.6,000.0,037.3,030.9,027.9,0000.0,0014.89,0005.01,0003.92
2024-06-08 19:54:00,SystemResetWarning,0828.0,5.00,000.00,029.2,028.8,000.0,037.3,031.1,027.8,0000.0,0015.02,0005.03,0003.94
2024-06-08 19:55:00,SystemResetWarning,0828.0,4.99,000.00,029.3,028.9,000.0,037.3,031.2,027.7,0000.0,0015.47,0005.07,0003.98
2024-06-08 19:56:00,SystemResetWarning,0827.9,5.00,000.00,029.4,029.1,000.0,037.4,031.3,027.9,0000.0,0015.65,0005.08,0003.98
2024-06-08 19:57:00,SystemResetWarning,0827.9,4.99,000.00,029.3,028.0,000.0,037.5,030.7,027.6,0000.0,0015.12,0005.11,0003.99
2024-06-08 19:58:00,SystemResetWarning,0827.8,5.01,000.00,029.0,026.0,000.0,037.5,029.7,028.1,0000.0,0014.33,0005.19,0004.00
2024-06-08 19:59:00,SystemResetWarning,0827.8,5.01,000.00,028.7,025.6,000.0,037.5,029.5,028.5,0000.0,0014.38,0005.20,0004.00
